Regional Weather Roundup
Issued by NWS

Home | Current Version | Previous Version | Text Only | Print | Product List | Glossary Off
Versions: 1 2 3 4 5 6 7 8 9 10 11 12 13 14 15 16 17 18 19 20 21 22 23 24 25 26 27 28 29 30 31 32 33 34 35 36 37 38 39 40 41 42 43 44 45 46 47 48 49 50

000
ASUS43 KMKX 230700
RWRWI

WISCONSIN REGIONAL WEATHER ROUNDUP
NATIONAL WEATHER SERVICE MILWAUKEE/SULLIVAN WI
200 AM CDT SUN JUL 23 2017

NOTE: "FAIR" INDICATES FEW OR NO CLOUDS BELOW 12,000 FEET WITH NO
SIGNIFICANT WEATHER AND/OR OBSTRUCTIONS TO VISIBILITY.

WIZ001-002-006>008-014>016-023>028-230800-
NORTHWEST WISCONSIN

CITY           SKY/WX    TMP DP  RH WIND       PRES   REMARKS
SUPERIOR ARPT  NOT AVBL
ASHLAND        FOG       59  59 100 S3        29.82F VSB 1/2
HAYWARD        CLOUDY    59  57  93 CALM      29.82F FOG
SIREN          CLOUDY    64  57  76 NW3       29.84R
CUMBERLAND     CLEAR     61  55  82 CALM      29.84S
RICE LAKE      CLEAR     62  58  87 CALM      29.84S
CHETEK         CLEAR     63  59  88 CALM      29.83S
LADYSMITH      CLEAR     62  61  96 CALM      29.83F
EAU CLAIRE     NOT AVBL
MENOMONIE      CLEAR     68  63  85 W5        29.83R
NEW RICHMOND   CLEAR     63  61  94 CALM      29.84S
OSCEOLA        PTCLDY    62  62 100 CALM      29.86F
$$

WIZ003>005-009-010-017-018-230800-
NORTH CENTRAL WISCONSIN

CITY           SKY/WX    TMP DP  RH WIND       PRES   REMARKS
MANITOWISH WTR FOG       61  61 100 CALM      29.83R VSB 3/4
ARBOR VITAE    FOG       62  61  96 CALM      29.82F VSB 3/4
WOODRUFF       FOG       62  61  96 CALM      29.82F VSB 3/4
RHINELANDER    FOG       59  59 100 CALM      29.81F VSB 3/4
EAGLE RIVER    PTCLDY    64  64 100 N5        29.81F
LAND O LAKES   CLOUDY    64  64 100 CALM      29.83F FOG
PHILLIPS       FOG       58  58 100 CALM      29.81F VSB 1/4
TOMAHAWK       FOG       59  58  96 CALM      29.82F VSB 1
MEDFORD        CLEAR     63  63  98 CALM      29.82F
MERRILL        CLEAR     65  65  99 W3        29.82S
$$

WIZ029-030-035-036-043>047-230800-
CENTRAL WISCONSIN

CITY           SKY/WX    TMP DP  RH WIND       PRES   REMARKS
WAUSAU         CLEAR     68  65  90 NW7       29.80R
MOSINEE        PTCLDY    68  68 100 W7        29.83R
MARSHFIELD     CLEAR     67  63  87 NW6       29.82R
STEVENS POINT  PTCLDY    69  68  97 W5        29.82R
WAUPACA        CLEAR     72  71  94 W5        29.79S
WAUTOMA        PTCLDY    71  70  96 W7        29.81R
WISC RAPIDS    CLEAR     68  66  93 NW3       29.82S
CAMP DOUGLAS   NOT AVBL
$$

WIZ011>013-019>022-031-037>040-048>050-230800-
NORTHEAST WISCONSIN

CITY           SKY/WX    TMP DP  RH WIND       PRES   REMARKS
ANTIGO         MOCLDY    63  63 100 CALM      29.82F
SHAWANO        PTCLDY    69  67  94 CALM      29.77F FOG
OCONTO         CLEAR     63  63  99 CALM      29.76F
STURGEON BAY     N/A     66  65  96 SW8       29.76
GREEN BAY      PTCLDY    68  68 100 SW3       29.77F
MANITOWOC      TSTM      66  64  94 SW12      29.81S FOG
APPLETON       PTCLDY    70  68  94 SE3       29.77S
CLINTONVILLE   MOCLDY    70  68  94 N3        29.78S FOG
OSHKOSH        CLOUDY    73  71  93 W5        29.77S
$$

WIZ032>034-041-042-053>061-230800-
SOUTHWEST WISCONSIN

CITY           SKY/WX    TMP DP  RH WIND       PRES   REMARKS
LA CROSSE      PTCLDY    71  69  93 S7        29.82F
SPARTA         MOCLDY    62  62 100 CALM      29.84S
VIROQUA        PTCLDY    67  67 100 W3        29.87R
BOSCOBEL       CLEAR     70  68  93 CALM      29.82S
PRAIRIE DU CHI CLEAR     72  68  89 CALM      29.83F
PLATTEVILLE    PTCLDY    73  73 100 NW5       29.84S
$$

WIZ056-057-062-063-064-067-068-230800-
SOUTH CENTRAL WISCONSIN

CITY           SKY/WX    TMP DP  RH WIND       PRES   REMARKS
REEDSBURG      CLOUDY    70  70 100 CALM      29.82R
BARABOO/DELLS  CLOUDY    70  68  93 CALM      29.82S
LONE ROCK      NOT AVBL
MINERAL POINT  CLEAR     72  72 100 CALM      29.85S
MADISON        PTCLDY    72  70  93 CALM      29.80F
MIDDLETON      PTCLDY    69  69 100 CALM      29.82F
WATERTOWN      PTCLDY    69  69 100 CALM      29.81R
MONROE         MOCLDY    73  72  94 NW5       29.83S
JANESVILLE     PTCLDY    72  72 100 CALM      29.81S
$$

WIZ051-052-058>065-066-070>072-230800-
SOUTHEAST WISCONSIN

CITY           SKY/WX    TMP DP  RH WIND       PRES   REMARKS
MILWAUKEE      PTCLDY    72  70  93 CALM      29.79S
WAUKESHA       MOCLDY    68  66  94 CALM      29.82F
MILWAUKEE/TIMM CLOUDY    68  64  88 CALM      29.81S
RACINE         CLEAR     71  70  96 SW3       29.81S FOG
KENOSHA        PTCLDY    69  68  96 CALM      29.80R FOG
FOND DU LAC    MOCLDY    73  68  84 SW6       29.79R
SHEBOYGAN      LGT RAIN  66  66 100 SE9       29.81R
WEST BEND      CLOUDY    68  68 100 SW5       29.80S
JUNEAU         CLOUDY    69  68  95 CALM      29.82S
$$

LSZ147-162-230800-
LAKE SUPERIOR

STATION/POSITION TIME  TEMP    WIND        PRES    WAVE
                       AIR SEA DIR/SP/G            HT/PER
                 (UTC) (F)     (DEG/KT/KT) (MB)    (FT/S)
W MID LAKE BUOY  0550   49 48   20/  4/  6 1009.8F   2/ 4
DEVILS ISLAND    0600   55      40/  6/  8 1010.2F
PORT WING        0511   57      50/  7/ 10 1010.8
SAXON HARBOR     0640   59     250/  2/  3 1009.1F
$$

LMZ867-665-643>646-230800-
LAKE MICHIGAN

STATION/POSITION TIME  TEMP    WIND        PRES    WAVE
                       AIR SEA DIR/SP/G            HT/PER
                 (UTC) (F)     (DEG/KT/KT) (MB)    (FT/S)
CHAMBERS ISLAND  0640   69     170/  3/  6 1007.1F
S GREEN BAY BUOY 0630   68 73  140/ 10/ 12 1007.8F
N MID LAKE BUOY  0550   69 68  310/  8/ 12 1009.0R   0
NORTHPORT PIER   0640   67     200/  3/  8 1007.8S
KEWAUNEE LAKESHO 0630   66      60/  2/  3 1007.6F
SHEBOYGAN LAKESH 0600   69     170/  7/  7 1007.8F
PORT WASHINGTON  0640   70     240/  2/  6 1009.5F
ATWATER BUOY     0539   70     220/  2/  4 1009.0F
MILWAUKEE LAKESH 0640   72     210/  4/  4   N/A
S MID LAKE BUOY  0550   70 70   CALM  /  2 1008.8F   0
KENOSHA   LAKESH 0600   72     240/  5/  7 1008.8
$$

TC  - TEMPERATURE IN CELSIUS
VSB - VISIBILITY IN STATUTE MILES
WCI - WIND CHILL INDEX
HX  - HEAT INDEX





USA.gov is the U.S. government's official web portal to all federal, state and local government web resources and services.